Flag for Germany Weather past 2 weeks in Erkrath, North Rhine-Westphalia, Germany

Now
64 °F

Scattered clouds.


Feels Like: 64 °F
Forecast: 48 / 63 °F
Wind: 12 mph from West

Location: Duesseldorf

Current Time: Aug 23, 2014 at 2:37:13 PM

Latest Report: Aug 23, 2014 at 1:50 PM


Visibility: N/A

Pressure: 29.92 "Hg

Humidity: 60%

Dew point: 50 °F

Location of ErkrathLocation

Historic Weather in Erkrath — Graph

°F

Erkrath temperature yesterday

Maximum temperature yesterday: 66 °F (at 3:50 PM)
Minimum temperature yesterday: 52 °F (at 5:50 AM)
Average temperature yesterday: 58 °F

Past Weeks' High & Low Weather Summary

 TemperatureHumidityPressure
High77 °F (Aug 8, 1:20 PM)94% (Aug 13, 5:20 AM)30.09 "Hg (Aug 13, 5:20 AM)
Low46 °F (Aug 20, 2:50 AM)43% (Aug 11, 3:50 PM)29.56 "Hg (Aug 10, 6:20 PM)
Average61 °F75%29.86 "Hg
* Reported Aug 8 1:20 PM — Aug 23 1:20 PM, Erkrath, Weather by CustomWeather, © 2014

Note: Actual official high and low records may vary slightly from our data, if they occured in-between our weather recording intervals... More about our weather records

Advertising

Erkrath weather history for previous 24 hours

 ConditionsComfort  
Time TempWeatherWind HumidityBarometerVisibility
1:20 PM
Aug 23
64 °FPassing clouds.13 mph60%29.92 "HgN/A
12:50 PM63 °FScattered clouds.14 mph68%29.92 "HgN/A
12:20 PM61 °FPassing clouds.12 mph68%29.92 "HgN/A
11:50 AM61 °FPassing clouds.12 mph68%29.92 "HgN/A
11:20 AM61 °FScattered clouds.9 mph72%29.92 "HgN/A
10:50 AM59 °FPartly sunny.9 mph72%29.92 "HgN/A
10:20 AM57 °FPartly sunny.9 mph82%29.92 "HgN/A
9:50 AM57 °FBroken clouds.10 mph82%29.92 "HgN/A
9:20 AM55 °FScattered clouds.9 mph88%29.92 "HgN/A
8:50 AM55 °FBroken clouds.8 mph88%29.92 "HgN/A
8:20 AM55 °FPartly sunny.7 mph88%29.92 "HgN/A
7:50 AM54 °FPartly sunny.6 mph94%29.89 "Hg5 mi
7:20 AM52 °FPassing clouds.8 mph94%29.89 "Hg4 mi
6:50 AM52 °FPassing clouds.7 mph94%29.89 "Hg4 mi
6:20 AM54 °FPartly cloudy.7 mph94%29.89 "Hg4 mi
5:50 AM54 °FPartly cloudy.5 mph94%29.89 "HgN/A
5:20 AM54 °FPartly cloudy.5 mph94%29.89 "HgN/A
4:50 AM52 °FPassing clouds.5 mph94%29.89 "HgN/A
4:20 AM50 °FClear.2 mph94%29.89 "Hg10 mi
3:50 AM52 °FClear.No wind94%29.89 "Hg10 mi
3:20 AM52 °FClear.3 mph88%29.89 "Hg10 mi
2:50 AM52 °FClear.5 mph88%29.89 "Hg10 mi
2:20 AM54 °FClear.5 mph88%29.89 "Hg10 mi
1:50 AM54 °FClear.5 mph88%29.89 "Hg10 mi
1:20 AM54 °FPassing clouds.5 mph88%29.89 "HgN/A
12:50 AM54 °FPartly cloudy.6 mph88%29.89 "HgN/A
12:20 AM55 °FClear.8 mph82%29.89 "Hg10 mi
11:50 PM
Aug 22
55 °FClear.9 mph82%29.89 "Hg10 mi
11:20 PM55 °FClear.9 mph88%29.89 "Hg10 mi
10:50 PM55 °FSprinkles. Partly cloudy.9 mph88%29.89 "HgN/A
10:20 PM55 °FSprinkles. Partly cloudy.9 mph94%29.89 "HgN/A
9:50 PM55 °FPassing clouds.9 mph94%29.89 "HgN/A
9:20 PM55 °FPassing clouds.9 mph88%29.89 "HgN/A
8:50 PM55 °FScattered clouds.10 mph88%29.89 "HgN/A
8:20 PM57 °FPartly sunny.9 mph88%29.89 "HgN/A
7:50 PM57 °FBroken clouds.7 mph88%29.89 "HgN/A
7:20 PM57 °FLight rain. Broken clouds.9 mph82%29.89 "HgN/A
6:50 PM57 °FLight rain. Broken clouds.9 mph82%29.89 "HgN/A
6:20 PM59 °FLight rain. Partly sunny.12 mph77%29.86 "HgN/A
5:50 PM63 °FPartly sunny.10 mph64%29.86 "HgN/A
5:20 PM64 °FLight rain. Broken clouds.12 mph56%29.86 "HgN/A
4:50 PM66 °FLight rain. Broken clouds.12 mph49%29.86 "HgN/A
4:20 PM66 °FBroken clouds.14 mph52%29.86 "HgN/A
3:50 PM66 °FBroken clouds.9 mph52%29.86 "HgN/A
3:20 PM64 °FPartly sunny.15 mph56%29.86 "HgN/A
2:50 PM64 °FBroken clouds.14 mph56%29.86 "HgN/A
2:20 PM64 °FBroken clouds.17 mph56%29.86 "HgN/A
Weather by CustomWeather, © 2014

See weather overviewHow to use our weather pages